Wind_Speed
34 36 37 38 32 27 28 30 30 29 27 25 18 10 9 4 15 11 9 7 6 6 3 3 6 9 10 10 12 12 13 14 17 21 25 27 28 26 25 23 22 22 22 22 25 29 29 25 22 23 27 31 38 40
34 36 37 35 29 26 28 29 28 25 23 19 13 8 4 13 11 11 10 8 6 3 2 4 6 8 9 11 13 13 15 15 18 18 14 16 21 24 27 25 23 23 22 22 22 20 19 22 27 24 23 25 39 42
31 35 35 31 26 27 27 28 25 22 19 16 10 3 12 11 13 14 11 7 4 1 2 5 6 8 10 12 12 12 14 16 19 16 14 15 15 18 20 25 24 23 25 23 22 23 21 13 17 25 25 20 28 32
30 33 34 29 26 26 25 26 23 20 16 12 5 13 11 12 13 13 8 6 3 1 3 5 6 7 7 9 11 13 14 14 16 15 13 13 13 13 20 21 22 22 22 21 21 21 24 22 19 18 22 24 26 27
32 33 33 29 26 24 25 24 21 19 14 9 9 14 13 13 13 11 9 7 4 3 2 4 7 9 10 12 12 13 13 14 15 14 13 11 9 9 10 18 20 20 19 21 20 21 23 25 26 26 24 23 27 32
32 33 36 31 24 23 25 24 21 19 13 9 14 16 15 14 13 11 10 8 7 6 4 4 8 10 12 13 13 12 12 12 13 14 14 14 11 9 6 5 13 17 19 17 19 21 22 21 24 27 30 30 28 28
32 31 35 31 24 23 24 23 21 18 13 12 19 18 17 15 13 11 11 8 7 6 3 3 6 9 11 14 15 15 13 12 12 13 14 13 12 10 7 7 7 7 11 17 21 23 24 26 23 26 28 28 31 33
30 30 31 27 24 24 24 21 18 15 14 15 22 21 19 17 15 12 10 9 8 6 3 1 5 9 13 15 16 17 16 14 14 14 14 13 11 10 8 7 6 7 10 11 14 17 20 24 26 27 28 28 29 32
30 29 26 24 22 22 22 19 16 14 16 19 23 22 21 19 17 14 11 10 9 7 5 4 6 9 12 15 16 15 17 18 16 14 14 14 12 10 9 7 7 7 8 9 10 12 14 17 21 24 25 29 32 31
28 24 23 22 20 20 18 14 12 14 17 22 24 24 23 21 19 17 14 12 11 10 8 8 8 9 11 15 15 14 17 15 13 15 17 18 14 10 8 7 7 8 8 10 12 13 15 17 20 22 25 28 30 30
23 20 21 20 18 17 14 12 12 14 17 24 24 25 26 23 21 20 17 15 13 12 12 12 11 12 12 11 13 15 15 11 10 15 24 23 19 18 15 11 10 8 7 9 11 12 16 19 20 22 26 29 31 31
20 18 18 17 17 15 12 12 14 15 17 25 24 27 27 24 23 21 20 17 16 16 15 14 12 12 13 13 11 14 16 16 20 23 23 21 17 18 18 17 19 17 15 17 17 17 19 21 24 25 26 29 31 33
19 16 16 17 16 16 13 12 12 14 16 23 26 27 27 25 23 19 19 17 16 16 16 15 12 12 14 14 16 16 15 19 19 21 22 20 14 17 19 19 20 20 19 20 21 20 21 25 27 27 28 29 30 33
20 16 17 16 17 17 18 16 15 16 19 26 28 27 29 24 22 19 17 15 16 14 14 13 13 13 14 14 15 15 19 21 19 26 24 21 18 18 25 21 24 23 24 26 26 23 27 26 25 27 29 31 32 36
14 17 15 16 17 18 19 19 19 19 21 27 28 28 28 24 21 19 17 17 14 14 15 14 14 14 14 14 16 20 16 21 20 23 26 25 26 26 25 24 25 23 24 22 18 23 24 24 26 28 29 32 35 36
17 16 16 17 17 17 20 18 17 17 19 26 26 27 28 25 21 20 18 15 15 15 14 12 12 12 13 14 17 19 19 23 26 27 23 21 21 26 25 29 32 31 29 27 28 31 29 29 29 30 33 35 35 33
15 16 16 16 19 22 20 18 16 18 21 23 24 27 26 24 22 19 16 17 16 13 12 12 12 12 14 15 17 21 25 28 28 27 25 26 26 33 24 29 30 31 29 26 29 30 30 29 29 32 33 32 33 39
14 14 16 18 20 21 19 18 20 19 18 25 26 27 25 23 24 21 19 18 17 15 11 11 12 14 19 20 22 33 30 32 27 33 33 30 32 26 32 33 33 29 29 25 28 29 29 28 29 29 28 33 36 36
13 14 16 18 19 19 17 17 19 20 19 17 27 24 26 23 24 23 19 17 17 17 14 12 14 17 21 26 26 32 32 31 27 24 27 29 30 35 34 31 29 30 30 26 27 27 26 27 27 26 29 32 31 14
12 13 15 16 16 17 15 14 17 19 20 21 23 28 27 26 26 24 21 18 18 16 13 16 19 22 26 26 25 28 30 29 28 26 26 28 31 31 30 30 31 28 27 25 24 24 24 24 23 23 27 26 13 5
11 12 13 13 15 17 18 16 16 19 20 19 22 27 30 29 25 23 22 21 19 15 17 18 21 24 27 26 29 31 28 28 28 28 30 30 29 30 28 29 26 25 25 21 21 23 22 21 19 20 22 19 7 8
10 11 11 13 14 15 15 17 18 17 16 15 18 23 31 22 18 16 17 17 15 17 17 18 20 24 27 29 33 29 26 28 28 29 29 29 29 26 26 24 23 23 20 19 20 20 20 18 15 16 18 15 9 11
10 11 11 12 13 13 14 15 15 16 15 12 17 19 17 16 16 17 15 15 16 17 16 19 22 27 32 29 26 30 27 25 28 29 28 28 28 27 24 22 21 18 16 18 18 18 18 15 13 12 14 15 11 6
10 11 10 10 10 10 11 11 13 13 12 12 18 17 14 15 15 15 14 16 15 16 18 20 25 21 22 22 21 23 24 25 28 28 27 26 26 22 19 18 17 18 17 16 17 16 15 13 12 10 11 13 13 10
11 10 8 8 8 7 8 9 11 11 10 12 16 17 15 15 15 15 10 10 15 19 21 21 21 25 28 21 23 24 24 24 25 24 24 22 19 17 18 16 15 16 16 15 16 13 14 14 13 11 9 9 10 12
14 11 12 10 6 6 7 8 7 8 9 15 15 13 15 15 14 14 17 17 15 18 19 20 20 20 19 19 23 25 24 23 23 22 20 16 15 15 15 15 15 15 16 14 14 11 12 14 13 13 12 10 8 8
13 12 13 11 7 10 14 9 7 10 11 10 12 11 11 14 10 8 9 11 14 15 15 13 14 16 18 20 21 21 20 19 18 16 15 14 14 15 15 14 13 13 14 13 12 9 11 12 12 11 12 12 11 10
13 13 13 13 8 13 18 19 13 10 8 8 7 4 2 4 5 6 7 7 10 14 15 15 17 17 17 17 17 17 15 15 14 14 14 13 13 13 13 11 10 11 12 12 12 10 10 11 11 12 10 9 9 9
10 12 13 12 10 14 14 16 16 15 13 11 8 7 8 8 10 12 12 11 14 14 13 15 15 14 13 12 11 12 14 14 15 15 14 13 13 12 11 10 10 10 10 11 11 12 10 10 10 11 12 9 9 9
11 13 14 13 13 13 16 16 14 13 11 8 6 7 7 11 11 12 14 13 11 11 14 15 13 11 10 10 10 12 13 12 12 13 14 13 12 11 11 10 10 10 10 11 11 12 12 10 10 10 11 11 10 9
10 10 10 11 13 16 17 15 12 10 7 5 8 9 11 13 10 8 7 9 13 15 14 12 10 10 10 10 12 12 13 13 13 14 15 15 14 12 11 11 11 11 10 10 10 11 12 11 8 8 9 9 9 9
8 10 13 15 17 17 13 10 8 7 7 6 6 11 13 10 9 10 11 12 14 15 13 11 10 11 12 13 14 14 15 14 13 14 13 13 12 11 10 10 10 11 11 12 12 11 11 11 8 7 7 8 8 9
14 14 12 11 12 13 12 11 10 9 7 7 10 5 6 7 9 10 12 14 12 10 10 11 11 11 11 12 13 13 14 14 13 13 12 12 12 12 11 11 12 13 14 15 14 13 13 12 10 9 8 9 7 8
Wind_Direction
303 309 312 315 317 321 324 328 333 332 331 333 331 316 315 138 125 125 131 142 183 195 185 244 291 304 307 309 311 307 298 288 285 279 275 267 256 248 243 240 240 241 240 237 238 242 248 240 236 239 234 231 224 232
299 307 311 315 314 318 323 326 330 329 329 336 333 314 152 135 123 132 133 148 163 182 313 343 348 328 330 342 340 329 324 320 319 310 299 288 274 259 245 236 233 238 238 235 236 240 245 243 231 234 237 228 223 228
297 306 308 311 312 316 321 323 324 324 323 327 322 243 149 131 136 141 146 167 171 147 358 6 1 348 350 350 352 343 341 340 336 324 305 304 284 259 245 239 233 230 232 233 232 230 234 231 234 234 235 228 231 227
298 303 309 309 311 313 319 318 317 315 313 318 295 173 156 147 150 155 155 152 149 68 17 18 18 13 4 1 2 1 358 352 349 342 317 316 290 275 250 244 241 236 234 235 237 236 236 234 227 229 234 229 222 229
294 300 308 307 307 310 314 312 308 305 299 296 195 181 164 163 158 158 155 161 146 119 67 40 22 14 11 10 6 4 8 8 6 2 351 330 319 289 272 245 236 238 241 236 233 238 238 233 234 232 229 230 225 227
285 292 302 306 303 306 310 306 300 294 282 256 198 186 176 176 167 166 160 158 147 130 93 36 21 16 14 7 4 359 2 7 11 13 8 8 351 340 317 244 232 235 236 234 235 237 236 239 234 232 231 230 230 232
279 286 292 301 299 304 306 301 295 286 260 230 198 188 183 186 180 173 168 161 160 146 115 55 24 22 11 2 0 358 352 353 358 6 14 18 17 9 342 320 304 273 258 251 249 246 241 241 241 230 227 234 239 245
278 284 289 291 295 303 301 295 288 270 234 217 197 190 187 192 190 185 182 178 176 170 159 347 354 357 353 357 357 356 356 354 354 354 358 9 17 18 13 8 348 316 306 288 266 258 252 248 245 247 245 251 245 244
275 282 283 284 291 297 294 288 279 246 216 207 198 193 195 197 194 197 196 194 193 200 230 281 320 339 344 348 347 344 348 353 360 0 356 351 353 360 6 4 345 332 322 314 303 288 270 259 257 257 256 255 257 259
270 275 276 279 285 288 284 276 261 230 215 204 200 195 197 198 199 205 208 207 205 219 239 271 298 318 327 341 343 330 336 343 357 10 8 2 356 353 351 348 336 333 324 311 302 294 287 283 278 273 267 262 260 257
260 262 268 271 275 274 267 257 232 227 214 203 203 198 200 201 204 211 215 221 226 237 249 267 289 306 309 334 336 328 326 324 337 345 343 341 345 350 346 339 328 304 281 278 280 282 277 278 282 277 272 270 267 265
248 253 258 265 265 260 251 230 225 231 223 212 207 203 203 207 208 213 223 229 240 250 260 277 288 299 301 309 327 317 304 304 306 311 315 318 329 331 324 324 324 321 306 310 306 294 290 288 285 282 277 270 267 267
234 239 249 256 253 242 230 220 223 231 229 213 210 206 208 211 213 216 227 237 251 259 264 276 283 288 297 304 306 315 313 302 303 313 313 306 312 317 332 323 317 305 306 306 304 299 295 293 291 288 285 280 276 273
215 222 241 247 247 236 230 234 235 243 236 211 211 208 211 212 214 219 231 245 248 257 266 273 279 286 295 300 307 319 317 314 311 317 312 297 294 306 326 318 315 297 288 294 295 302 298 295 292 289 287 284 283 282
202 227 235 242 239 231 236 237 241 245 240 221 211 213 214 216 219 222 230 243 247 256 264 268 275 286 291 297 308 317 329 337 331 326 326 310 297 297 300 308 320 308 311 312 314 316 307 301 295 291 289 291 290 286
217 227 233 236 233 234 235 239 241 238 232 224 208 214 216 219 219 220 230 240 246 259 261 272 277 279 284 294 301 308 310 321 322 318 308 314 313 304 299 306 307 317 317 312 318 320 316 308 304 301 299 295 292 286
218 234 238 235 230 226 234 237 231 233 232 212 217 217 216 218 217 219 232 239 247 252 256 263 268 271 280 290 298 307 305 307 324 319 314 317 315 312 308 319 317 316 317 314 315 315 310 307 305 305 303 298 294 292
233 240 239 234 230 226 229 229 222 234 238 218 219 220 217 220 221 222 227 235 246 252 262 269 274 294 297 298 301 313 316 320 308 324 313 312 317 304 313 316 320 319 313 309 308 310 309 307 310 311 306 307 305 301
242 245 237 231 225 222 226 226 223 225 228 232 226 223 223 225 224 224 229 233 241 252 263 281 280 280 290 298 299 310 308 317 315 295 302 311 319 315 314 317 314 311 307 314 311 309 312 314 317 315 316 316 314 303
242 235 227 223 219 218 223 225 221 225 231 232 229 226 224 224 228 228 230 239 249 259 268 276 281 300 313 298 313 316 310 311 312 313 312 314 311 310 313 311 307 307 309 312 312 315 315 322 318 319 325 325 314 238
228 222 220 220 219 219 221 227 232 231 237 244 235 227 215 222 228 232 241 249 250 255 263 284 288 296 296 310 314 311 307 304 308 309 312 314 312 311 307 305 307 306 308 313 319 316 319 324 320 325 335 337 291 219
217 214 217 220 221 221 223 228 232 235 239 246 232 227 209 210 222 232 248 252 248 258 273 280 290 296 301 310 314 313 306 301 309 312 312 312 310 311 310 310 309 308 309 320 319 314 323 322 319 332 344 349 319 237
213 213 218 221 225 224 225 230 230 230 230 232 212 191 200 212 225 236 237 235 244 259 272 282 288 302 305 306 304 307 310 309 311 312 314 314 313 312 309 309 309 311 316 320 320 318 322 319 324 335 351 352 348 300
213 214 220 219 219 222 223 224 218 217 216 206 200 203 211 217 228 230 234 236 246 264 271 285 299 302 312 310 313 313 315 314 312 312 313 311 308 306 306 314 313 315 318 322 319 310 319 329 337 335 343 356 358 347
203 195 200 203 209 210 206 204 206 209 205 200 200 204 214 220 230 250 260 261 266 266 275 286 287 291 303 305 315 317 316 314 312 313 312 311 307 305 310 313 313 316 321 322 315 308 331 337 342 344 336 341 353 1
190 190 193 191 188 183 178 172 169 199 200 190 194 204 212 230 245 272 272 270 281 295 292 277 277 291 303 317 316 315 319 318 314 314 312 312 312 314 315 319 321 320 322 322 319 319 336 343 341 338 343 337 337 348
194 197 188 185 174 169 150 115 185 185 187 192 204 215 233 237 248 283 248 266 280 293 302 291 294 311 318 319 316 316 318 317 314 316 323 327 323 319 319 321 320 315 317 320 329 320 330 341 345 341 340 341 340 328
190 186 182 187 191 177 176 172 153 155 182 183 163 149 223 262 270 281 280 289 287 291 299 306 310 319 324 316 315 320 323 328 331 333 335 330 323 320 318 318 317 313 315 324 335 322 319 333 344 350 346 338 334 336
185 191 201 202 190 179 177 184 189 191 184 185 197 226 260 271 285 286 293 298 307 302 296 301 313 314 309 314 324 336 341 340 336 339 338 333 333 328 323 320 317 311 313 319 328 336 319 322 336 346 350 347 346 344
181 176 172 174 172 168 162 163 175 179 179 186 215 251 262 272 290 303 296 299 301 301 304 305 303 303 314 331 339 334 330 334 342 343 336 336 341 339 332 328 329 327 324 326 327 330 334 314 319 335 346 350 350 346
157 169 180 181 178 172 172 174 180 185 174 198 210 235 255 273 293 294 304 308 302 301 303 309 311 308 315 323 326 327 328 330 334 334 334 336 339 342 342 345 346 344 338 330 324 325 330 333 305 319 332 343 352 351
144 143 145 147 155 163 175 185 183 186 195 221 267 268 271 277 295 297 301 301 306 301 304 306 307 316 321 321 326 327 324 324 323 320 319 319 321 325 331 340 339 339 340 336 335 336 331 338 327 301 311 328 342 348
136 135 132 133 146 158 166 173 188 204 218 249 265 293 253 265 274 282 299 308 309 311 308 306 307 309 310 317 325 328 324 319 315 314 317 315 311 312 318 324 329 329 329 331 335 335 334 333 331 320 303 303 320 333
Height
5789 5785 5781 5777 5773 5769 5765 5760 5756 5751 5747 5743 5738 5736 5734 5735 5736 5738 5740 5741 5745 5746 5747 5746 5746 5746 5745 5743 5742 5741 5740 5737 5735 5733 5732 5730 5730 5731 5733 5736 5738 5741 5743 5746 5749 5752 5755 5759 5762 5765 5769 5773 5776 5780
5782 5778 5773 5770 5767 5763 5759 5755 5751 5747 5744 5741 5737 5735 5734 5736 5738 5740 5741 5742 5744 5745 5745 5745 5745 5744 5742 5741 5739 5737 5735 5733 5730 5727 5725 5724 5723 5723 5725 5728 5731 5734 5737 5740 5744 5746 5747 5749 5755 5758 5761 5763 5768 5774
5773 5770 5767 5763 5760 5757 5753 5749 5746 5742 5740 5738 5735 5734 5735 5736 5738 5740 5742 5743 5744 5744 5744 5744 5743 5743 5741 5739 5737 5735 5732 5729 5725 5722 5721 5719 5716 5716 5718 5720 5724 5727 5730 5733 5736 5740 5742 5745 5747 5750 5754 5758 5761 5765
5764 5762 5759 5756 5753 5750 5747 5743 5741 5738 5737 5735 5733 5735 5735 5736 5738 5741 5742 5742 5743 5743 5743 5744 5743 5742 5740 5738 5736 5734 5731 5728 5724 5719 5717 5715 5713 5712 5713 5715 5718 5722 5725 5728 5731 5734 5736 5739 5742 5744 5746 5749 5753 5756
5755 5753 5751 5749 5746 5743 5740 5737 5735 5733 5733 5731 5731 5733 5734 5736 5738 5740 5741 5742 5742 5744 5743 5742 5742 5741 5739 5737 5735 5733 5730 5727 5723 5719 5715 5712 5710 5709 5708 5709 5712 5715 5718 5721 5725 5727 5730 5733 5736 5738 5740 5742 5745 5749
5746 5745 5743 5741 5739 5736 5733 5731 5729 5728 5728 5728 5729 5730 5732 5735 5737 5739 5740 5741 5742 5742 5742 5742 5742 5740 5738 5736 5733 5730 5728 5725 5722 5719 5716 5712 5710 5708 5706 5706 5708 5710 5712 5715 5718 5721 5724 5727 5730 5732 5734 5735 5737 5739
5735 5735 5735 5734 5732 5729 5726 5724 5723 5722 5722 5723 5725 5727 5731 5734 5735 5738 5740 5740 5740 5741 5741 5741 5740 5739 5737 5735 5732 5729 5726 5724 5721 5719 5716 5714 5711 5709 5707 5707 5707 5708 5709 5710 5712 5714 5717 5719 5722 5725 5728 5730 5732 5733
5725 5725 5725 5725 5724 5722 5720 5717 5716 5716 5717 5718 5721 5723 5728 5732 5734 5736 5737 5737 5738 5740 5740 5740 5740 5739 5736 5734 5731 5728 5725 5723 5721 5718 5716 5714 5712 5711 5709 5708 5707 5706 5706 5706 5707 5708 5710 5712 5714 5717 5719 5721 5722 5724
5715 5716 5716 5716 5715 5714 5713 5712 5711 5711 5712 5714 5718 5721 5725 5729 5731 5733 5735 5735 5736 5739 5739 5739 5739 5737 5735 5733 5730 5728 5725 5722 5720 5717 5715 5713 5711 5710 5709 5708 5707 5706 5705 5704 5704 5704 5705 5706 5707 5708 5710 5710 5712 5713
5705 5707 5708 5708 5708 5707 5706 5706 5706 5707 5709 5711 5715 5717 5722 5725 5727 5730 5732 5733 5734 5735 5736 5737 5736 5735 5734 5732 5729 5727 5724 5721 5719 5717 5715 5712 5710 5708 5706 5706 5705 5704 5704 5702 5701 5701 5701 5700 5700 5700 5700 5701 5701 5702
5695 5698 5701 5701 5701 5701 5700 5701 5701 5703 5705 5708 5711 5714 5718 5721 5724 5726 5728 5731 5731 5733 5733 5733 5733 5733 5731 5730 5727 5725 5722 5720 5718 5716 5714 5711 5708 5706 5704 5703 5701 5700 5699 5698 5697 5697 5696 5695 5694 5693 5692 5691 5691 5691
5687 5690 5693 5695 5695 5696 5695 5696 5698 5700 5702 5704 5707 5710 5714 5717 5720 5723 5725 5727 5728 5729 5730 5730 5730 5730 5728 5727 5725 5723 5720 5718 5716 5714 5711 5708 5707 5704 5702 5700 5698 5696 5695 5692 5689 5688 5687 5686 5685 5683 5682 5682 5681 5680
5679 5683 5686 5688 5689 5691 5692 5693 5694 5696 5698 5699 5703 5706 5710 5713 5717 5719 5721 5723 5725 5725 5726 5727 5727 5726 5725 5724 5722 5721 5718 5715 5712 5710 5707 5705 5703 5700 5697 5694 5692 5690 5689 5686 5684 5681 5678 5676 5673 5672 5670 5670 5669 5668
5670 5675 5679 5681 5684 5685 5688 5689 5690 5692 5693 5694 5698 5701 5705 5709 5713 5716 5718 5719 5720 5721 5722 5722 5722 5721 5720 5719 5718 5717 5714 5711 5709 5706 5702 5700 5698 5695 5693 5690 5687 5684 5682 5679 5676 5674 5671 5668 5665 5662 5660 5658 5656 5654
5664 5669 5672 5675 5677 5680 5682 5683 5685 5687 5688 5689 5693 5696 5702 5706 5709 5712 5714 5714 5715 5716 5717 5717 5717 5717 5716 5715 5714 5712 5709 5707 5704 5702 5698 5695 5693 5691 5687 5684 5681 5678 5675 5672 5668 5666 5663 5659 5656 5653 5650 5648 5645 5641
5659 5663 5666 5668 5671 5674 5676 5677 5679 5681 5682 5685 5689 5693 5697 5701 5704 5707 5709 5711 5711 5712 5713 5714 5713 5713 5713 5711 5709 5706 5705 5702 5700 5697 5693 5690 5687 5683 5680 5676 5672 5669 5666 5663 5659 5656 5653 5649 5646 5643 5639 5635 5632 5629
5653 5657 5660 5663 5665 5668 5670 5672 5674 5676 5678 5682 5685 5688 5692 5696 5700 5703 5705 5706 5707 5708 5709 5709 5709 5709 5708 5706 5705 5703 5700 5697 5693 5689 5686 5683 5680 5675 5672 5668 5665 5661 5658 5655 5652 5649 5645 5641 5637 5633 5628 5624 5620 5615
5650 5652 5654 5657 5659 5662 5664 5666 5669 5672 5675 5676 5678 5683 5688 5692 5695 5698 5700 5702 5704 5704 5705 5705 5705 5705 5702 5701 5699 5696 5692 5688 5684 5681 5680 5677 5672 5668 5665 5660 5656 5654 5651 5648 5646 5641 5637 5633 5628 5623 5619 5614 5607 5600
5646 5648 5649 5652 5654 5657 5659 5662 5665 5667 5670 5672 5675 5679 5683 5687 5690 5693 5696 5698 5699 5700 5701 5700 5700 5698 5697 5694 5692 5689 5686 5682 5677 5673 5671 5669 5665 5661 5656 5653 5650 5647 5644 5641 5638 5634 5629 5625 5620 5615 5611 5604 5597 5592
5642 5643 5645 5647 5650 5652 5655 5658 5660 5662 5665 5667 5670 5673 5679 5681 5683 5688 5691 5693 5695 5696 5697 5696 5694 5693 5691 5688 5685 5681 5679 5676 5673 5669 5666 5663 5659 5654 5649 5647 5644 5641 5637 5635 5631 5626 5623 5619 5615 5610 5605 5598 5592 5590
5638 5640 5642 5643 5646 5648 5651 5653 5656 5658 5660 5661 5663 5666 5670 5674 5679 5683 5686 5688 5690 5692 5691 5690 5689 5687 5685 5682 5678 5675 5673 5670 5667 5663 5659 5655 5652 5648 5644 5641 5638 5635 5632 5629 5625 5622 5619 5615 5611 5607 5601 5595 5591 5590
5635 5636 5638 5640 5642 5644 5648 5650 5652 5655 5656 5657 5658 5661 5664 5672 5676 5679 5681 5682 5684 5684 5685 5685 5683 5681 5679 5675 5671 5668 5666 5663 5659 5656 5652 5648 5644 5641 5638 5635 5632 5629 5626 5624 5621 5618 5615 5611 5608 5604 5599 5594 5590 5589
5632 5634 5635 5637 5639 5642 5645 5646 5648 5651 5652 5655 5657 5660 5665 5669 5672 5674 5676 5677 5678 5679 5679 5678 5676 5674 5671 5668 5665 5663 5660 5656 5653 5649 5646 5641 5637 5635 5632 5630 5627 5624 5622 5620 5617 5614 5611 5608 5605 5601 5597 5593 5590 5588
5629 5632 5633 5635 5637 5639 5641 5643 5645 5647 5650 5652 5656 5659 5663 5666 5668 5670 5671 5672 5672 5672 5672 5672 5670 5668 5666 5662 5660 5658 5655 5651 5646 5643 5639 5635 5632 5630 5628 5626 5622 5619 5618 5616 5613 5611 5609 5605 5601 5598 5596 5593 5589 5587
5629 5631 5633 5634 5636 5638 5639 5641 5643 5645 5648 5651 5654 5658 5661 5664 5666 5667 5668 5668 5668 5668 5667 5666 5664 5663 5661 5658 5654 5651 5649 5646 5641 5638 5634 5631 5628 5626 5624 5621 5619 5616 5614 5612 5610 5608 5604 5601 5598 5596 5594 5592 5589 5587
5627 5629 5632 5633 5636 5637 5638 5640 5642 5645 5647 5650 5654 5656 5659 5662 5663 5664 5664 5664 5664 5662 5660 5659 5659 5658 5656 5653 5650 5646 5643 5640 5636 5634 5631 5628 5625 5623 5620 5617 5615 5612 5610 5609 5607 5604 5602 5599 5596 5593 5591 5590 5588 5587
5626 5628 5631 5633 5635 5637 5639 5640 5642 5645 5648 5651 5653 5656 5658 5659 5660 5660 5660 5660 5659 5658 5657 5656 5655 5653 5651 5648 5644 5641 5639 5636 5633 5630 5627 5624 5621 5619 5617 5615 5613 5611 5609 5607 5605 5602 5600 5598 5595 5592 5589 5587 5586 5585
5624 5627 5630 5633 5634 5636 5638 5641 5643 5646 5648 5652 5653 5654 5656 5657 5658 5658 5657 5657 5656 5654 5653 5652 5650 5648 5645 5643 5641 5638 5635 5632 5629 5626 5624 5621 5619 5617 5614 5613 5610 5609 5607 5605 5602 5600 5598 5596 5594 5591 5589 5587 5586 5584
5625 5627 5629 5631 5633 5635 5637 5640 5643 5646 5648 5649 5651 5653 5654 5655 5655 5655 5654 5653 5652 5651 5649 5648 5646 5644 5642 5640 5638 5634 5631 5629 5627 5624 5621 5619 5617 5615 5613 5611 5609 5607 5605 5602 5600 5597 5595 5593 5592 5590 5588 5586 5584 5582
5624 5625 5628 5630 5632 5634 5637 5641 5643 5645 5647 5649 5651 5652 5653 5652 5651 5651 5650 5649 5648 5647 5646 5644 5643 5641 5639 5636 5633 5631 5629 5627 5624 5621 5619 5617 5615 5613 5611 5608 5606 5604 5602 5600 5597 5595 5593 5591 5589 5588 5587 5585 5583 5581
5625 5626 5628 5630 5632 5635 5638 5641 5643 5645 5647 5649 5650 5650 5650 5649 5648 5647 5646 5645 5645 5643 5641 5639 5638 5637 5635 5633 5630 5629 5626 5624 5621 5619 5617 5614 5612 5610 5608 5606 5603 5601 5599 5597 5595 5594 5592 5589 5587 5586 5585 5583 5582 5580
5626 5627 5629 5631 5634 5637 5640 5642 5644 5645 5646 5647 5648 5647 5645 5645 5645 5645 5644 5643 5641 5639 5637 5636 5635 5633 5631 5629 5627 5625 5623 5621 5619 5617 5615 5613 5610 5608 5606 5604 5602 5600 5598 5595 5593 5592 5589 5587 5585 5584 5583 5582 5580 5578
5628 5630 5632 5634 5636 5638 5639 5641 5643 5644 5645 5645 5644 5644 5644 5644 5644 5643 5641 5640 5638 5636 5634 5633 5631 5630 5628 5626 5624 5622 5620 5618 5616 5615 5613 5610 5607 5605 5603 5601 5599 5597 5594 5592 5590 5588 5586 5584 5583 5581 5580 5578 5577 5576